Date,TemperatureHighF,TemperatureAvgF,TemperatureLowF,DewpointHighF,DewpointAvgF,DewpointLowF,HumidityHigh,HumidityAvg,HumidityLow,PressureMaxIn,PressureMinIn,WindSpeedMaxMPH,WindSpeedAvgMPH,GustSpeedMaxMPH,PrecipitationSumIn
2013-11-1,63.0,51.4,45.0,55.6,47.9,44.4,98,89,61,30.13,29.66,3,0,3,0.04
2013-11-2,52.3,48.6,41.2,50.5,42.0,32.9,98,79,55,29.72,29.31,26,2,26,0.33
2013-11-3,60.1,41.9,35.4,48.9,36.5,31.3,98,83,37,29.96,29.72,9,0,9,0.00
2013-11-4,51.6,39.6,30.4,41.9,34.3,28.6,97,83,47,30.04,29.90,3,0,3,0.05
2013-11-5,56.3,45.5,40.5,51.1,42.7,38.1,98,90,65,30.10,29.84,6,0,6,0.33
2013-11-6,51.6,45.2,41.7,49.1,43.8,41.2,98,95,81,30.16,29.87,8,0,8,0.08
2013-11-7,49.6,47.4,46.0,47.1,45.0,41.9,98,92,77,29.87,29.54,7,2,13,1.16
2013-11-8,57.9,49.7,41.5,46.0,42.1,37.9,96,84,52,29.99,29.81,0,0,0,1.16
2013-11-9,48.9,42.5,34.7,44.4,40.7,34.0,98,93,81,30.01,29.93,2,0,2,0.08
2013-11-10,48.9,45.4,43.0,47.3,44.2,42.4,98,96,86,30.01,29.90,3,0,3,0.08
2013-11-11,59.4,47.6,40.3,52.2,42.7,33.1,98,85,43,30.01,29.84,8,1,8,0.00
2013-11-12,57.7,51.8,46.4,54.9,46.5,32.9,98,84,42,30.19,29.84,11,0,11,0.12
2013-11-13,60.4,49.6,44.4,52.7,46.3,39.4,98,89,51,30.31,30.13,4,0,4,0.00
2013-11-14,50.4,45.1,41.7,49.6,44.2,41.2,98,97,90,30.16,29.90,4,0,4,0.13
2013-11-15,46.8,43.2,41.0,44.6,42.0,39.4,98,95,84,29.90,29.13,12,1,12,0.41
2013-11-16,46.8,42.0,37.9,44.2,37.7,33.6,98,85,69,29.60,29.16,6,0,6,0.41
2013-11-17,50.5,46.2,41.4,45.0,40.2,34.0,89,79,65,29.75,29.60,10,1,10,0.04
2013-11-18,52.3,48.2,45.5,50.4,47.2,42.4,98,96,87,29.75,29.36,9,0,9,0.54
2013-11-19,53.4,43.1,31.6,50.0,40.5,29.1,97,91,84,29.90,29.36,12,0,12,0.54
2013-11-20,46.9,31.5,25.0,34.3,26.4,22.3,97,83,42,30.34,29.90,4,0,4,0.16
2013-11-21,47.5,28.9,23.7,34.2,24.7,21.7,95,85,48,30.52,30.31,4,0,4,0.00
2013-11-22,46.4,29.3,21.2,34.3,24.3,18.7,94,83,44,30.49,30.31,3,0,3,0.00
2013-11-23,47.1,31.9,24.1,37.0,27.2,21.9,95,84,50,30.31,30.01,3,0,3,0.00
2013-11-24,55.4,34.2,26.8,39.0,29.6,25.3,96,85,46,30.10,29.99,3,0,3,0.00
2013-11-25,57.0,36.3,28.2,43.7,32.2,27.0,97,86,48,30.16,30.07,2,0,2,0.00
2013-11-26,54.9,41.0,27.1,45.0,33.3,25.9,97,89,52,30.10,29.93,2,0,3,0.00
2013-11-27,55.4,43.8,32.2,45.3,35.8,30.4,98,84,48,29.96,29.78,3,0,3,0.00
2013-11-28,58.5,36.7,29.1,45.9,32.5,28.0,98,87,39,30.01,29.84,3,0,3,0.00
2013-11-29,42.6,38.9,31.6,42.1,38.2,30.0,98,97,93,30.19,30.01,2,0,2,0.00
2013-11-30,48.9,45.5,41.9,48.4,45.0,41.4,98,98,98,30.19,29.93,3,0,3,0.25